Albany, NY

11:00 PM EDT on October 18, 2019 (GMT -0400)
Albany International

Weather History for KALB - August, 2019

Change the Weather History Date:

Sunday, August 25, 2019

  Actual Average Record
Temperature  
Mean Temperature 66 °F 69 °F  
Max Temperature 77 °F 79 °F 99 °F (1947)
Min Temperature 54 °F 59 °F 35 °F (1940)
Degree Days  
Heating Degree Days 0 1  
Month to date heating degree days 1 8  
Since 1 June heating degree days 28 65  
Since 1 July heating degree days 1 13  
Cooling Degree Days 1 5  
Month to date cooling degree days 197 153  
Year to date cooling degree days 703 519  
Since 1 June cooling degree days 681 489  
Growing Degree Days 19 (Base 50)    
Moisture  
Dew Point 53 °F    
Average Humidity 61    
Maximum Humidity 84    
Minimum Humidity 38    
Precipitation  
Precipitation T in 0.10 in 1.74 in (1892)
Month to date precipitation 4.08 2.87  
Year to date precipitation 28.94 25.56  
Sea Level Pressure  
Sea Level Pressure 30.30 in    
Wind  
Wind Speed 5 mph (NE)    
Max Wind Speed 13 mph    
Max Gust Speed 19 mph    
Visibility 10 miles    
Events      
T = Trace of Precipitation, MM = Missing Value Source: NWS Daily Summary

Daily Weather History Graph

Daily Weather History Graph

Search for Another Location

Airport or City:

Astronomy

Aug. 25, 2019 Rise Set
Actual Time 6:12 AM EDT 7:41 PM EDT
Civil Twilight 5:42 AM EDT 8:11 PM EDT
Nautical Twilight 5:06 AM EDT 8:46 PM EDT
Astronomical Twilight 4:28 AM EDT 9:24 PM EDT
Moon 12:40 AM EDT (8/25) 4:04 PM EDT (8/25)
Length of Visible Light 14h 28m
Length of Day
13h 29m
Waning Crescent, 29% of the Moon is Illuminated
Aug 25
Waning Crescent
Aug 30
New
Sep 5
First Quarter
Sep 14
Full
Sep 21
Last Quarter

Hourly Weather History & Observations

Time (EDT) Temp. Dew Point Humidity Pressure Visibility Wind Dir Wind Speed Gust Speed Precip Events Conditions
12:51 AM 64.0 °F 54.0 °F 70% 30.30 in 10.0 mi North 6.9 mph - N/A   Overcast
1:51 AM 63.0 °F 54.0 °F 72% 30.30 in 10.0 mi NNE 6.9 mph - N/A   Overcast
2:51 AM 63.0 °F 54.0 °F 72% 30.29 in 10.0 mi Calm Calm - N/A   Overcast
3:51 AM 62.1 °F 55.0 °F 78% 30.30 in 10.0 mi North 4.6 mph - 0.00 in   Overcast
4:51 AM 62.1 °F 55.0 °F 78% 30.31 in 10.0 mi North 3.5 mph - N/A   Overcast
5:51 AM 61.0 °F 55.0 °F 81% 30.32 in 10.0 mi NNW 3.5 mph - N/A   Overcast
6:51 AM 61.0 °F 55.9 °F 83% 30.33 in 10.0 mi North 3.5 mph - N/A   Overcast
7:51 AM 62.1 °F 55.9 °F 80% 30.35 in 10.0 mi North 5.8 mph - N/A   Mostly Cloudy
8:51 AM 66.0 °F 57.0 °F 73% 30.36 in 10.0 mi North 4.6 mph - N/A   Scattered Clouds
9:51 AM 70.0 °F 55.0 °F 59% 30.35 in 10.0 mi ENE 6.9 mph - N/A   Scattered Clouds
10:51 AM 71.1 °F 54.0 °F 55% 30.35 in 10.0 mi NNE 9.2 mph - N/A   Mostly Cloudy
11:51 AM 73.0 °F 55.0 °F 53% 30.33 in 10.0 mi NNE 10.4 mph - N/A   Mostly Cloudy
12:51 PM 73.9 °F 55.0 °F 52% 30.31 in 10.0 mi NE 8.1 mph - N/A   Mostly Cloudy
1:51 PM 75.0 °F 54.0 °F 48% 30.30 in 10.0 mi North 9.2 mph - N/A   Mostly Cloudy
2:51 PM 75.9 °F 53.1 °F 45% 30.28 in 10.0 mi Variable 4.6 mph - N/A   Scattered Clouds
3:51 PM 75.9 °F 50.0 °F 40% 30.26 in 10.0 mi East 8.1 mph - N/A   Scattered Clouds
4:51 PM 77.0 °F 50.0 °F 39% 30.25 in 10.0 mi ENE 8.1 mph - N/A   Scattered Clouds
5:51 PM 75.9 °F 48.9 °F 38% 30.24 in 10.0 mi ENE 8.1 mph - N/A   Scattered Clouds
7:51 PM 66.9 °F 51.1 °F 57% 30.26 in 10.0 mi Calm Calm - N/A   Partly Cloudy
8:51 PM 66.9 °F 48.0 °F 51% 30.28 in 10.0 mi ESE 3.5 mph - N/A   Partly Cloudy
9:51 PM 64.0 °F 46.9 °F 54% 30.28 in 10.0 mi ESE 4.6 mph - N/A   Clear
10:51 PM 61.0 °F 48.0 °F 62% 30.29 in 10.0 mi South 3.5 mph - N/A   Clear
11:51 PM 60.1 °F 48.0 °F 64% 30.29 in 10.0 mi SSW 3.5 mph - N/A   Clear